When you browse on this site, cookies collect data to enhance your experience and personalize the content and advertising you see.
Visit our Privacy Policy to learn more. By continuing to use the site, you agree to this use of cookies and data.
  • în România
  • Lista ţărilor
  • Pe 7 zile
  • Temperatura apei
  • Hartă satelitară
  • Meteo pe hartă
  • Widget-uri
  • user-avatar
    Intrare

    Meteo pe oră la Wiktoria

    Astăzi, 16 Iunie, Duminică

    Timp Temperatura Precipitaţii Vânt Presiune Umiditate
    00:00 +8°C° 0 mm 1 m/s 754 mmHg 91%
    01:00 +8°C° 0 mm 1 m/s 754 mmHg 92%
    02:00 +8°C° 0 mm 1 m/s 754 mmHg 92%
    03:00 +8°C° 0 mm 1 m/s 754 mmHg 92%
    04:00 +7°C° 0 mm 1 m/s 754 mmHg 94%
    05:00 +7°C° 0 mm 1 m/s 754 mmHg 94%
    06:00 +7°C° 0 mm 1 m/s 755 mmHg 94%
    07:00 +7°C° 0 mm 1 m/s 755 mmHg 94%
    08:00 +8°C° 0 mm 1 m/s 755 mmHg 91%
    09:00 +9°C° 0 mm 1 m/s 755 mmHg 89%
    10:00 +9°C° 0 mm 2 m/s 755 mmHg 87%
    11:00 +12°C° 0 mm 1 m/s 755 mmHg 83%
    12:00 +13°C° 0 mm 1 m/s 754 mmHg 79%
    13:00 +14°C° 0 mm 1 m/s 754 mmHg 75%
    14:00 +14°C° 0 mm 1 m/s 754 mmHg 76%
    15:00 +13°C° 0 mm 0 m/s 754 mmHg 77%
    16:00 +13°C° 0 mm 0 m/s 753 mmHg 78%
    17:00 +12°C° 0 mm 1 m/s 754 mmHg 82%
    18:00 +11°C° 0 mm 1 m/s 754 mmHg 86%
    19:00 +8°C° 0 mm 2 m/s 754 mmHg 91%
    20:00 +8°C° 0 mm 2 m/s 755 mmHg 91%
    21:00 +9°C° 0 mm 1 m/s 755 mmHg 91%
    22:00 +8°C° 0 mm 1 m/s 755 mmHg 92%
    23:00 +8°C° 0 mm 1 m/s 755 mmHg 92%

    Mâine, 17 Iunie, Luni

    Timp Temperatura Precipitaţii Vânt Presiune Umiditate
    00:00 +8°C° 0 mm 1 m/s 755 mmHg 92%
    01:00 +8°C° 0 mm 1 m/s 755 mmHg 92%
    02:00 +7°C° 0 mm 1 m/s 755 mmHg 92%
    03:00 +7°C° 0 mm 1 m/s 755 mmHg 92%
    04:00 +7°C° 0 mm 1 m/s 755 mmHg 92%
    05:00 +7°C° 0 mm 1 m/s 755 mmHg 92%
    06:00 +6°C° 0 mm 1 m/s 755 mmHg 92%
    07:00 +6°C° 0 mm 1 m/s 755 mmHg 92%
    08:00 +8°C° 0 mm 1 m/s 755 mmHg 88%
    09:00 +9°C° 0 mm 1 m/s 755 mmHg 84%
    10:00 +10°C° 0 mm 1 m/s 755 mmHg 80%
    11:00 +12°C° 0 mm 1 m/s 755 mmHg 76%
    12:00 +13°C° 0 mm 1 m/s 754 mmHg 73%
    13:00 +14°C° 0 mm 1 m/s 754 mmHg 69%
    14:00 +14°C° 0 mm 1 m/s 753 mmHg 71%
    15:00 +14°C° 0 mm 1 m/s 753 mmHg 73%
    16:00 +14°C° 0 mm 1 m/s 753 mmHg 75%
    17:00 +12°C° 0 mm 1 m/s 753 mmHg 79%
    18:00 +11°C° 0 mm 1 m/s 753 mmHg 83%
    19:00 +8°C° 0 mm 2 m/s 754 mmHg 88%
    20:00 +8°C° 0 mm 2 m/s 754 mmHg 89%
    21:00 +8°C° 0 mm 2 m/s 753 mmHg 90%
    22:00 +7°C° 0 mm 2 m/s 753 mmHg 91%
    23:00 +7°C° 0 mm 3 m/s 753 mmHg 92%

    Poimâine, 18 Iunie, Marţi

    Timp Temperatura Precipitaţii Vânt Presiune Umiditate
    00:00 +7°C° 0 mm 3 m/s 753 mmHg 93%
    01:00 +7°C° 0 mm 3 m/s 753 mmHg 93%
    02:00 +7°C° 0 mm 3 m/s 752 mmHg 91%
    03:00 +7°C° 0 mm 3 m/s 752 mmHg 90%
    04:00 +6°C° 0 mm 4 m/s 751 mmHg 88%
    05:00 +7°C° 0 mm 3 m/s 751 mmHg 88%
    06:00 +7°C° 0 mm 3 m/s 751 mmHg 87%
    07:00 +8°C° 0 mm 3 m/s 751 mmHg 87%
    08:00 +8°C° 0.2 mm 3 m/s 752 mmHg 86%
    09:00 +7°C° 0.2 mm 4 m/s 752 mmHg 86%
    10:00 +8°C° 0.2 mm 4 m/s 752 mmHg 86%
    11:00 +10°C° 0.3 mm 4 m/s 752 mmHg 83%
    12:00 +10°C° 0.3 mm 4 m/s 752 mmHg 81%
    13:00 +10°C° 0.3 mm 5 m/s 752 mmHg 78%
    14:00 +10°C° 0.2 mm 5 m/s 752 mmHg 77%
    15:00 +10°C° 0.2 mm 4 m/s 752 mmHg 76%
    16:00 +10°C° 0.2 mm 4 m/s 752 mmHg 76%
    17:00 +8°C° 0 mm 4 m/s 753 mmHg 78%
    18:00 +7°C° 0 mm 3 m/s 753 mmHg 80%
    19:00 +4°C° 0 mm 3 m/s 754 mmHg 82%
    20:00 +4°C° 0 mm 3 m/s 754 mmHg 84%
    21:00 +3°C° 0 mm 3 m/s 754 mmHg 86%
    22:00 +4°C° 0 mm 2 m/s 755 mmHg 88%
    23:00 +3°C° 0 mm 2 m/s 755 mmHg 89%

    19 Iunie, Miercuri

    Timp Temperatura Precipitaţii Vânt Presiune Umiditate
    00:00 +3°C° 0 mm 2 m/s 755 mmHg 91%
    01:00 +2°C° 0 mm 2 m/s 755 mmHg 92%
    02:00 +2°C° 0 mm 2 m/s 755 mmHg 92%
    03:00 +2°C° 0 mm 2 m/s 755 mmHg 93%
    04:00 +2°C° 0 mm 2 m/s 755 mmHg 93%
    05:00 +2°C° 0 mm 2 m/s 756 mmHg 93%
    06:00 +2°C° 0 mm 2 m/s 756 mmHg 93%
    07:00 +1°C° 0 mm 2 m/s 756 mmHg 93%
    08:00 +3°C° 0 mm 2 m/s 756 mmHg 88%
    09:00 +5°C° 0 mm 2 m/s 757 mmHg 84%
    10:00 +6°C° 0 mm 2 m/s 757 mmHg 79%
    11:00 +7°C° 0 mm 2 m/s 757 mmHg 73%
    12:00 +9°C° 0 mm 3 m/s 757 mmHg 68%
    13:00 +10°C° 0 mm 3 m/s 757 mmHg 62%
    14:00 +10°C° 0 mm 3 m/s 756 mmHg 64%
    15:00 +9°C° 0 mm 2 m/s 756 mmHg 67%
    16:00 +9°C° 0 mm 2 m/s 756 mmHg 69%
    17:00 +7°C° 0 mm 2 m/s 756 mmHg 72%
    18:00 +6°C° 0 mm 2 m/s 757 mmHg 76%
    19:00 +4°C° 0 mm 2 m/s 757 mmHg 79%
    20:00 +5°C° 0 mm 1 m/s 757 mmHg 81%
    21:00 +4°C° 0 mm 1 m/s 757 mmHg 84%
    22:00 +4°C° 0 mm 1 m/s 757 mmHg 86%
    23:00 +3°C° 0 mm 1 m/s 757 mmHg 87%

    20 Iunie, Joi

    Timp Temperatura Precipitaţii Vânt Presiune Umiditate
    00:00 +3°C° 0 mm 1 m/s 757 mmHg 89%
    01:00 +3°C° 0 mm 1 m/s 757 mmHg 90%
    02:00 +3°C° 0 mm 1 m/s 756 mmHg 90%
    03:00 +2°C° 0 mm 1 m/s 756 mmHg 91%
    04:00 +2°C° 0 mm 1 m/s 756 mmHg 91%
    05:00 +2°C° 0 mm 1 m/s 756 mmHg 91%
    06:00 +2°C° 0 mm 1 m/s 757 mmHg 91%
    07:00 +2°C° 0 mm 1 m/s 757 mmHg 91%
    08:00 +3°C° 0 mm 1 m/s 757 mmHg 86%
    09:00 +5°C° 0 mm 1 m/s 757 mmHg 80%
    10:00 +6°C° 0 mm 1 m/s 757 mmHg 75%
    11:00 +7°C° 0 mm 1 m/s 756 mmHg 71%
    12:00 +8°C° 0 mm 1 m/s 756 mmHg 67%
    13:00 +10°C° 0 mm 1 m/s 755 mmHg 62%
    14:00 +9°C° 0 mm 1 m/s 755 mmHg 63%
    15:00 +9°C° 0 mm 1 m/s 754 mmHg 64%
    16:00 +9°C° 0 mm 1 m/s 754 mmHg 65%
    17:00 +7°C° 0 mm 0 m/s 754 mmHg 69%
    18:00 +5°C° 0 mm 0 m/s 755 mmHg 74%
    19:00 +4°C° 0 mm 0 m/s 755 mmHg 78%
    20:00 +3°C° 0 mm 0 m/s 755 mmHg 80%
    21:00 +3°C° 0 mm 0 m/s 755 mmHg 82%
    22:00 +4°C° 0 mm 1 m/s 755 mmHg 84%
    23:00 +3°C° 0 mm 1 m/s 755 mmHg 85%

    21 Iunie, Vineri

    Timp Temperatura Precipitaţii Vânt Presiune Umiditate
    00:00 +3°C° 0 mm 1 m/s 755 mmHg 86%
    01:00 +3°C° 0 mm 1 m/s 755 mmHg 88%
    02:00 +3°C° 0 mm 1 m/s 755 mmHg 88%
    03:00 +2°C° 0 mm 1 m/s 755 mmHg 89%
    04:00 +2°C° 0 mm 1 m/s 755 mmHg 89%
    05:00 +2°C° 0 mm 1 m/s 755 mmHg 90%
    06:00 +1°C° 0 mm 2 m/s 756 mmHg 91%
    07:00 -1°C° 0 mm 2 m/s 756 mmHg 92%
    08:00 +2°C° 0 mm 2 m/s 756 mmHg 86%
    09:00 +4°C° 0 mm 2 m/s 756 mmHg 80%
    10:00 +5°C° 0 mm 3 m/s 757 mmHg 74%
    11:00 +7°C° 0 mm 3 m/s 756 mmHg 69%
    12:00 +9°C° 0 mm 3 m/s 756 mmHg 65%
    13:00 +10°C° 0 mm 4 m/s 756 mmHg 61%
    14:00 +10°C° 0 mm 4 m/s 756 mmHg 63%
    15:00 +10°C° 0 mm 4 m/s 756 mmHg 65%
    16:00 +10°C° 0 mm 4 m/s 756 mmHg 67%
    17:00 +7°C° 0 mm 4 m/s 757 mmHg 73%
    18:00 +5°C° 0 mm 4 m/s 757 mmHg 79%
    19:00 +3°C° 0 mm 4 m/s 758 mmHg 85%
    20:00 +3°C° 0 mm 3 m/s 758 mmHg 87%
    21:00 +2°C° 0 mm 3 m/s 758 mmHg 89%
    22:00 +2°C° 0 mm 3 m/s 758 mmHg 91%
    23:00 +2°C° 0 mm 3 m/s 758 mmHg 90%
    Arată mai mult